Flag for U.S.A. Weather past 2 weeks in Wailuku, Hawaii, U.S.A.

Now
72 °F

Passing clouds.


Feels Like: 68 °F
Forecast: 75 / 85 °F
Wind: No wind

Location: Kahului Airport

Current Time: Oct 23, 2014 at 12:35:45 AM

Latest Report: Oct 22, 2014 at 11:54 PM


Visibility: 10 mi

Pressure: 30.03 "Hg

Humidity: 93%

Dew point: 70 °F

Location of WailukuLocation

Historic Weather in Wailuku — Graph

°F

Wailuku temperature yesterday

Maximum temperature yesterday: 86 °F (at 10:54 AM)
Minimum temperature yesterday: 73 °F (at 4:54 AM)
Average temperature yesterday: 77 °F

Past Weeks' High & Low Weather Summary

 TemperatureHumidityPressure
High90 °F (Oct 8, 12:54 PM)94% (Oct 19, 1:24 AM)30.06 "Hg (Oct 19, 1:24 AM)
Low69 °F (Oct 14, 3:54 AM)45% (Oct 9, 9:54 AM)29.85 "Hg (Oct 17, 2:54 PM)
Average80 °F72%29.98 "Hg
* Reported Oct 7 10:54 PM — Oct 22 10:54 PM, Wailuku, Weather by CustomWeather, © 2014

Note: Actual official high and low records may vary slightly from our data, if they occured in-between our weather recording intervals... More about our weather records

Advertising

Wailuku weather history for previous 24 hours

 ConditionsComfort  
Time TempWeatherWind HumidityBarometerVisibility
10:54 PM
Oct 22
74 °FPassing clouds.No wind91%30.03 "Hg10 mi
9:54 PM74 °FClear.No wind94%30.04 "Hg10 mi
8:54 PM74 °FClear.No wind94%30.05 "Hg10 mi
7:54 PM75 °FPassing clouds.5 mph90%30.04 "Hg10 mi
6:54 PM76 °FPartly cloudy.No wind88%30.02 "Hg10 mi
5:54 PM76 °FBroken clouds.3 mph91%30.01 "Hg10 mi
5:22 PM75 °FBroken clouds.5 mph94%29.99 "Hg10 mi
4:54 PM76 °FFog.3 mph91%30.00 "Hg5 mi
4:08 PM75 °FRain. Fog.6 mph94%29.97 "Hg2 mi
3:59 PM77 °FLight rain. Fog.6 mph89%29.97 "Hg3 mi
2:54 PM77 °FRain. Fog.5 mph90%29.98 "Hg4 mi
1:54 PM78 °FMore clouds than sun.7 mph90%29.99 "Hg7 mi
12:54 PM77 °FRain. Broken clouds.8 mph88%30.01 "Hg8 mi
11:54 AM84 °FPartly sunny.16 mph70%30.02 "Hg10 mi
10:54 AM86 °FPartly sunny.10 mph63%30.03 "Hg10 mi
9:54 AM85 °FPassing clouds.5 mph59%30.05 "Hg10 mi
8:54 AM84 °FSunny.3 mph65%30.04 "Hg10 mi
7:54 AM79 °FPassing clouds.No wind77%30.03 "Hg10 mi
6:54 AM73 °FScattered clouds.No wind90%30.01 "Hg10 mi
5:54 AM73 °FPassing clouds.No wind88%30.00 "Hg10 mi
4:54 AM73 °FClear.No wind88%29.99 "Hg10 mi
3:54 AM74 °FClear.No wind85%29.98 "Hg10 mi
2:54 AM74 °FPassing clouds.No wind88%29.99 "Hg10 mi
1:54 AM74 °FPassing clouds.6 mph88%29.99 "Hg10 mi
12:54 AM74 °FPassing clouds.6 mph88%30.00 "Hg10 mi
Weather by CustomWeather, © 2014

See weather overviewHow to use our weather pages